DateTimeUTC,F1_A11,F1_S11,BsB_S11,BsG_S11,BsR_S11,BbsB_S11,BbsG_S11,BbsR_S11,BaB_A11,BaG_A11,BaR_A11,Tu_S11,T_S11,Uu_S11,U_S11,P_S11,T1_A11
2021-02-11T21:00:00Z,00000200,21000000,,,,,,,0000.06,0000.20,-000.04,15.3,22.8,,00.0,0652.1,30.9
2021-02-11T21:01:00Z,00000200,21000000,,,,,,,0000.08,-000.16,-000.37,15.3,22.8,,00.0,0652.1,30.9
2021-02-11T21:02:00Z,00000200,21000000,,,,,,,-000.34,0000.06,0000.12,15.2,22.8,,00.0,0652.1,30.8
2021-02-11T21:03:00Z,00000200,61000000,,,,,,,0000.37,0000.45,0000.35,15.2,22.8,,00.0,0652.1,30.8
2021-02-11T21:04:00Z,00000200,41000000,0001.19,0000.10,0000.21,-000.15,0000.08,0000.16,0000.05,-000.34,-000.26,15.3,22.6,,00.0,0653.0,30.8
2021-02-11T21:05:00Z,00000200,01000000,0000.34,0000.19,0000.34,0000.03,0000.01,0000.13,0000.33,-000.12,0000.25,15.2,22.5,,00.0,0653.1,30.8
2021-02-11T21:06:00Z,00000200,01000000,0000.36,-000.14,0000.27,0000.07,0000.25,0000.16,0000.22,0000.55,0000.25,15.2,22.4,,00.0,0653.1,30.8
2021-02-11T21:07:00Z,00000200,01000000,0000.85,0000.10,-000.21,0000.64,-000.16,0000.24,0000.43,-000.01,0000.07,15.3,22.4,,00.0,0653.0,30.8
2021-02-11T21:08:00Z,00000200,01000000,0000.54,0000.03,0000.11,0000.03,-000.08,-000.05,0000.22,0000.11,0000.40,15.3,22.5,,00.0,0653.0,30.8
2021-02-11T21:09:00Z,00000200,01000000,0000.30,0000.07,0000.40,0000.17,0000.07,-000.05,0000.10,0000.63,0000.15,15.4,22.5,,00.0,0653.0,30.8
2021-02-11T21:10:00Z,00000200,01000000,0000.03,-000.12,0000.12,0000.11,0000.40,0000.11,0000.21,-000.20,0000.10,15.4,22.5,,00.0,0653.1,30.8
2021-02-11T21:11:00Z,00000200,01000000,0000.87,0000.24,0000.03,-000.04,0000.17,0000.10,0000.12,0000.63,0000.05,15.4,22.5,,00.0,0653.1,30.8
2021-02-11T21:12:00Z,00000200,01000000,0000.14,-000.10,0000.09,0000.02,0000.25,0000.19,-000.00,-000.28,0000.20,15.5,22.5,,00.0,0653.1,30.8
2021-02-11T21:13:00Z,00000200,01000000,0000.20,-000.07,0000.20,0000.03,0000.04,0000.06,0000.30,0000.53,-000.11,15.5,22.6,,00.0,0653.1,30.9
2021-02-11T21:14:00Z,00000200,01000000,0000.46,0000.12,-000.06,0000.20,0000.19,-000.07,0000.07,-000.12,0000.31,15.6,22.6,,00.0,0653.2,30.9
2021-02-11T21:15:00Z,00000200,01000000,0000.46,0000.07,-000.11,-000.13,0000.09,-000.01,0000.09,0000.05,0000.05,15.6,22.6,,00.0,0653.2,30.9
2021-02-11T21:16:00Z,00000200,01000000,0000.85,-000.07,0000.31,0000.23,0000.02,0000.19,-000.05,0000.14,0000.02,15.7,22.6,,00.0,0653.2,30.9
2021-02-11T21:17:00Z,00000200,01000000,0000.99,0000.41,0000.08,-000.06,0000.16,-000.15,0000.37,0000.26,0000.07,15.7,22.7,,00.0,0653.2,30.9
2021-02-11T21:18:00Z,00000200,01000000,0000.75,-000.05,0000.10,0000.11,0000.07,0000.08,-000.00,0000.47,0000.16,15.8,22.7,,00.0,0653.2,30.9
2021-02-11T21:19:00Z,00000200,01000000,0000.39,-000.07,-000.02,0000.12,-000.02,-000.04,0000.11,-000.33,-000.04,15.8,22.7,,00.0,0653.2,30.9
2021-02-11T21:20:00Z,00000200,01000000,0001.00,0000.00,0000.09,-000.23,0000.04,-000.21,0000.17,-000.07,0000.23,15.9,22.7,,00.0,0653.2,30.9
2021-02-11T21:21:00Z,00000200,01000000,0000.44,0000.27,-000.08,-000.30,0000.10,0000.04,0000.14,0000.53,0000.04,15.9,22.7,,00.0,0653.2,30.9
2021-02-11T21:22:00Z,00000200,01000000,0000.16,-000.33,0000.38,0000.22,0000.21,0000.05,0000.04,0000.10,0000.19,15.9,22.7,,00.0,0653.2,30.9
2021-02-11T21:23:00Z,00000200,01000000,0000.06,0000.21,0000.14,-000.23,0000.03,0000.24,0000.20,-000.21,0000.01,15.9,22.7,,00.0,0653.2,30.9
2021-02-11T21:24:00Z,00000200,01000000,0000.14,-000.07,0000.01,-000.63,0000.37,0000.26,-000.04,0000.27,-000.06,15.9,22.8,,00.0,0653.2,30.9
2021-02-11T21:25:00Z,00000200,01000000,0001.16,0000.11,0000.03,0000.20,0000.31,0000.07,0000.39,0000.06,-000.07,15.8,22.7,,00.0,0653.2,30.9
2021-02-11T21:26:00Z,00000200,01000000,0000.00,0000.12,0000.22,-000.01,0000.08,0000.40,-000.18,-000.07,0000.04,15.8,22.7,,00.0,0653.2,30.9
2021-02-11T21:27:00Z,00000200,01000000,0000.50,-000.09,0000.11,-000.51,0000.06,0000.02,-000.08,0000.07,0000.11,15.7,22.7,,00.0,0653.2,30.9
2021-02-11T21:28:00Z,00000200,01000000,0000.90,0000.19,0000.30,0000.50,0000.14,0000.04,0000.09,0000.43,-000.06,15.6,22.6,,00.0,0653.2,30.9
2021-02-11T21:29:00Z,00000200,01000000,0001.23,-000.13,-000.34,0000.02,-000.01,0000.07,0000.15,0000.18,0000.11,15.6,22.6,,00.0,0653.2,30.9
2021-02-11T21:30:00Z,00000200,01000000,0000.19,-000.10,0000.52,-000.37,0000.07,0000.33,-000.07,-000.52,0000.31,15.5,22.6,,00.0,0653.2,30.9
2021-02-11T21:31:00Z,00000200,01000000,0000.65,-000.13,0000.11,0000.15,0000.04,0000.09,0000.36,0000.23,-000.01,15.4,22.6,,00.0,0653.1,30.8
2021-02-11T21:32:00Z,00000200,01000000,0001.26,0000.14,0000.21,-000.09,0000.21,0000.20,0000.02,-000.06,-000.10,15.4,22.5,,00.0,0653.2,30.8
2021-02-11T21:33:00Z,00000200,01000000,0001.05,0000.29,0000.08,-000.01,0000.08,0000.25,-000.24,0000.19,0000.05,15.3,22.5,,00.0,0653.2,30.8
2021-02-11T21:34:00Z,00000200,01000000,0000.34,0000.10,0000.19,-000.05,0000.14,0000.32,0000.28,-000.12,0000.31,15.2,22.4,,00.0,0653.1,30.8
2021-02-11T21:35:00Z,00000200,01000000,0000.50,0000.08,0000.12,0000.51,-000.14,0000.10,0000.09,-000.04,-000.32,15.2,22.4,,00.0,0653.2,30.8
2021-02-11T21:36:00Z,00000200,01000000,0000.33,0000.10,0000.09,-000.03,0000.01,0000.15,0000.45,0000.30,0000.32,15.2,22.4,,00.0,0653.2,30.8
2021-02-11T21:37:00Z,00000200,01000000,0001.05,0000.18,-000.22,-000.12,-000.08,-000.21,0000.04,0000.14,0000.36,15.2,22.4,,00.0,0653.2,30.8
2021-02-11T21:38:00Z,00000200,01000000,0000.53,-000.16,-000.09,-000.12,0000.10,0000.12,0000.23,0000.23,-000.09,15.2,22.4,,00.0,0653.1,30.8
2021-02-11T21:39:00Z,00000200,01000000,0001.25,0000.18,-000.05,-000.18,-000.02,-000.13,0000.24,0000.06,0000.38,15.3,22.4,,00.0,0653.1,30.8
2021-02-11T21:40:00Z,00000200,01000000,0000.22,0000.28,0000.12,-000.23,0000.13,0000.04,-000.11,0000.16,-000.33,15.3,22.4,,00.0,0653.1,30.8
2021-02-11T21:41:00Z,00000200,01000000,0000.54,-000.04,0000.17,0000.13,0000.38,0000.10,-000.05,0000.25,0000.10,15.3,22.4,,00.0,0653.1,30.8
2021-02-11T21:42:00Z,00000200,01000000,0000.71,0000.11,-000.06,0000.13,0000.12,0000.15,0000.17,-000.02,0000.10,15.3,22.4,,00.0,0653.1,30.8
2021-02-11T21:43:00Z,00000200,01000000,0000.32,0000.18,0000.26,0000.21,0000.00,0000.12,-000.11,0000.27,-000.08,15.3,22.4,,00.0,0653.0,30.8
2021-02-11T21:44:00Z,00000200,01000000,0000.66,0000.39,-000.09,-000.43,0000.25,-000.05,0000.14,-000.50,0000.03,15.2,22.4,,00.0,0653.1,30.8
2021-02-11T21:45:00Z,00000200,01000000,0000.36,-000.05,0000.27,-000.03,-000.02,0000.15,0000.10,0000.15,-000.23,15.2,22.3,,00.0,0653.1,30.8
2021-02-11T21:46:00Z,00000200,01000000,0000.85,0000.08,0000.08,0000.19,0000.07,-000.13,-000.05,0000.23,0000.53,15.1,22.3,,00.0,0653.1,30.8
2021-02-11T21:47:00Z,00000200,01000000,0000.55,-000.07,0000.12,0000.02,-000.02,0000.14,0000.07,-000.07,-000.36,15.0,22.3,,00.0,0653.1,30.8
2021-02-11T21:48:00Z,00000200,01000000,0000.75,0000.07,0000.05,-000.23,-000.14,-000.07,-000.02,-000.14,0000.24,15.0,22.3,,00.0,0653.1,30.8
2021-02-11T21:49:00Z,00000200,01000000,0000.80,-000.02,-000.15,0000.10,0000.06,-000.30,0000.06,0000.23,-000.03,14.9,22.2,,00.0,0653.1,30.8
2021-02-11T21:50:00Z,00000200,01000000,0000.63,-000.03,0000.14,0000.11,-000.01,0000.19,0000.11,0000.02,-000.00,14.9,22.1,,00.0,0653.1,30.8
2021-02-11T21:51:00Z,00000200,01000000,0000.77,0000.22,0000.13,0000.04,-000.13,0000.04,0000.37,0000.19,0000.22,14.9,22.1,,00.0,0653.1,30.8
2021-02-11T21:52:00Z,00000200,01000000,0000.09,0000.02,0000.13,0000.09,-000.07,0000.14,0000.43,0000.35,0000.02,14.9,22.1,,00.0,0653.1,30.8
2021-02-11T21:53:00Z,00000200,01000000,0000.44,0000.11,0000.21,0000.12,0000.18,0000.10,0000.08,0000.09,0000.19,15.0,22.1,,00.0,0653.1,30.8
2021-02-11T21:54:00Z,00000200,01000000,0000.46,0000.26,0000.21,-000.22,0000.33,-000.13,-000.08,0000.09,-000.04,15.0,22.2,,00.0,0653.1,30.8
2021-02-11T21:55:00Z,00000200,01000000,0000.91,0000.22,0000.01,0000.08,0000.34,0000.14,0000.20,-000.07,0000.64,15.0,22.2,,00.0,0653.1,30.8
2021-02-11T21:56:00Z,00000200,01000000,-000.05,0000.27,0000.12,0000.03,0000.04,-000.12,0000.17,0000.55,0000.00,15.1,22.2,,00.0,0653.1,30.8
2021-02-11T21:57:00Z,00000200,41000000,,,,,,,-000.10,-000.38,-000.02,15.2,22.2,,00.0,0653.1,30.8
2021-02-11T21:58:00Z,00000200,61000000,,,,,,,-000.03,0000.05,-000.13,14.9,22.4,,00.0,0652.1,30.8
2021-02-11T21:59:00Z,00000200,21000000,,,,,,,0000.37,-000.00,0000.08,14.9,22.5,,00.0,0652.1,30.8
